Flag for France Weather past 2 weeks in Saint-Denis, France

Now
59 °F

Overcast.


Feels Like: 57 °F
Forecast: 55 / 70 °F
Wind: 12 mph from West

Location: Paris Le Bourget Airport

Current Time: Jul 28, 2015 at 8:42:14 AM

Latest Report: Jul 28, 2015 at 8:00 AM


Visibility: N/A

Pressure: 29.86 "Hg

Humidity: 68%

Dew point: 48 °F

Location of Saint-DenisLocation

Historic Weather in Saint-Denis — Graph

°F

Saint-Denis temperature yesterday

Maximum temperature yesterday: 72 °F (at 3:30 PM)
Minimum temperature yesterday: 59 °F (at 3:30 AM)
Average temperature yesterday: 65 °F

Past Weeks' High & Low Weather Summary

 TemperatureHumidityPressure
High97 °F (Jul 16, 6:30 PM)94% (Jul 19, 5:00 AM)30.15 "Hg (Jul 19, 5:00 AM)
Low50 °F (Jul 26, 3:00 AM)20% (Jul 16, 6:30 PM)29.62 "Hg (Jul 24, 11:00 PM)
Average71 °F61%29.96 "Hg
* Reported Jul 13 7:00 AM — Jul 28 7:30 AM, Saint-Denis, Weather by CustomWeather, © 2015

Note: Actual official high and low records may vary slightly from our data, if they occured in-between our weather recording intervals... More about our weather records

Advertising

Saint-Denis weather history for previous 24 hours

 ConditionsComfort  
Time TempWeatherWind HumidityBarometerVisibility
7:30 AM
Tue, Jul 28
59 °FPassing clouds.13 mph68%29.86 "HgN/A
7:00 AM59 °FClear.12 mph68%29.86 "Hg10 mi
6:30 AM57 °FClear.12 mph72%29.83 "Hg10 mi
6:00 AM57 °FPassing clouds.10 mph67%29.83 "HgN/A
5:30 AM57 °FClear.9 mph72%29.83 "Hg10 mi
5:00 AM57 °FPassing clouds.9 mph72%29.83 "HgN/A
4:30 AM57 °FPassing clouds.8 mph67%29.83 "HgN/A
4:00 AM57 °FClear.8 mph67%29.83 "Hg10 mi
3:30 AM57 °FClear.8 mph67%29.83 "Hg10 mi
3:00 AM59 °FPassing clouds.9 mph63%29.83 "HgN/A
2:30 AM59 °FClear.9 mph63%29.83 "Hg10 mi
2:00 AM59 °FPassing clouds.10 mph63%29.83 "HgN/A
1:30 AM61 °FPassing clouds.13 mph59%29.83 "HgN/A
1:00 AM61 °FPassing clouds.10 mph59%29.83 "HgN/A
12:30 AM63 °FPassing clouds.13 mph56%29.83 "HgN/A
12:00 AM63 °FPassing clouds.13 mph56%29.83 "HgN/A
11:30 PM
Mon, Jul 27
64 °FPassing clouds.9 mph60%29.83 "HgN/A
11:00 PM64 °FMostly cloudy.13 mph60%29.80 "HgN/A
10:30 PM64 °FMostly cloudy.13 mph60%29.80 "HgN/A
10:00 PM66 °FCloudy.13 mph60%29.80 "HgN/A
9:30 PM68 °FPartly sunny.15 mph60%29.77 "HgN/A
9:00 PM70 °FPartly sunny.16 mph57%29.77 "HgN/A
8:30 PM70 °FSunny.15 mph53%29.77 "Hg10 mi
8:00 PM72 °FBroken clouds.18 mph50%29.77 "HgN/A
7:30 PM72 °FSunny.17 mph50%29.77 "Hg10 mi
7:00 PM72 °FPartly sunny.20 mph50%29.77 "HgN/A
6:30 PM72 °FBroken clouds.20 mph50%29.77 "HgN/A
6:00 PM72 °FMore clouds than sun.21 mph50%29.77 "HgN/A
5:30 PM72 °FPartly sunny.18 mph50%29.77 "HgN/A
5:00 PM72 °FMore clouds than sun.17 mph53%29.77 "HgN/A
4:30 PM72 °FMostly cloudy.17 mph53%29.74 "HgN/A
4:00 PM72 °FBroken clouds.15 mph53%29.74 "HgN/A
3:30 PM72 °FCloudy.17 mph53%29.74 "HgN/A
3:00 PM70 °FBroken clouds.21 mph53%29.74 "HgN/A
2:30 PM70 °FCloudy.20 mph57%29.74 "HgN/A
2:00 PM70 °FMostly cloudy.17 mph53%29.74 "HgN/A
1:30 PM70 °FPartly sunny.18 mph57%29.74 "HgN/A
1:00 PM68 °FPartly sunny.18 mph60%29.74 "HgN/A
12:30 PM66 °FPartly sunny.16 mph68%29.74 "HgN/A
12:00 PM66 °FPartly sunny.17 mph68%29.74 "HgN/A
11:30 AM64 °FPartly sunny.13 mph78%29.74 "HgN/A
11:00 AM63 °FBroken clouds.13 mph83%29.74 "HgN/A
10:30 AM63 °FLight rain. Partly sunny.16 mph83%29.74 "HgN/A
10:00 AM63 °FMostly cloudy.15 mph73%29.71 "HgN/A
9:30 AM63 °FMostly cloudy.15 mph77%29.71 "HgN/A
9:00 AM61 °FMostly cloudy.12 mph83%29.71 "HgN/A
8:30 AM59 °FDrizzle. Partly sunny.10 mph88%29.71 "HgN/A
8:00 AM61 °FCloudy.14 mph77%29.71 "HgN/A
Weather by CustomWeather, © 2015

See weather overviewHow to use our weather pages